This demonstration page uses our WeatherBlox Daily Observations layout. Learn more.

Left ArrowRight Arrow

39.51506, -84.39828

Hourly Observations for February 14, 2020

Temp ( °F °C ) Dew Point ( °F °C ) Humidity (%) Winds ( mph kmh ) Pressure ( in mb ) Visibility ( mi km ) Precip ( " mm )
12:15 am 00:15 Cloudy with Light Snow 19 -7.1 13 -10.4 78 78 W 13 20 30.42 1030 10 16.0934 0 0
12:35 am 00:35 Cloudy 18 -7.9 10 -12 73 73 WNW 13 20 30.43 1030 10 16.0934 0 0
12:55 am 00:55 Cloudy 17 -8.1 11 -11.9 74 74 WNW 15 24 30.44 1031 10 16.0934 0 0
1:15 am 01:15 Cloudy with Light Snow 18 -8 11 -11.5 76 76 WNW 12 19 30.44 1031 10 16.0934 0 0
1:35 am 01:35 Cloudy with Light Snow 17 -8.2 11 -11.8 76 76 WNW 14 22 30.45 1031 10 16.0934 0 0
1:55 am 01:55 Cloudy 16 -8.9 9 -12.7 74 74 W 13 20 30.46 1032 10 16.0934 0 0
2:15 am 02:15 Cloudy 16 -9.1 9 -12.8 75 75 W 9 15 30.47 1032 10 16.0934 0 0
2:35 am 02:35 Cloudy 15 -9.5 9 -13 76 76 W 7 11 30.48 1032 10 16.0934 0 0
2:55 am 02:55 Cloudy 14 -9.8 8 -13.3 76 76 W 12 19 30.48 1032 10 16.0934 0 0
3:15 am 03:15 Cloudy with Light Snow 14 -10.2 7 -13.7 76 76 W 5 7 30.49 1033 10 16.0934 0 0
3:35 am 03:35 Cloudy 14 -10.2 7 -13.7 76 76 WNW 9 15 30.49 1033 10 16.0934 0 0
3:55 am 03:55 Cloudy 13 -10.8 6 -14.4 75 75 NW 8 13 30.51 1033 10 16.0934 0 0
4:15 am 04:15 Cloudy 12 -11 6 -14.5 76 76 W 10 17 30.51 1033 10 16.0934 0 0
4:35 am 04:35 Cloudy 12 -11.1 5 -14.8 74 74 W 8 13 30.52 1033 10 16.0934 0 0
4:55 am 04:55 Cloudy 12 -11.2 5 -14.8 75 75 W 7 11 30.53 1034 10 16.0934 0 0
5:15 am 05:15 Cloudy 11 -11.5 5 -15.2 74 74 W 9 15 30.53 1034 10 16.0934 0 0
5:35 am 05:35 Cloudy 11 -11.6 5 -15.1 76 76 W 9 15 30.54 1034 10 16.0934 0 0
5:55 am 05:55 Cloudy 11 -11.8 4 -15.5 74 74 W 9 15 30.56 1035 10 16.0934 0 0
6:15 am 06:15 Cloudy 11 -11.9 4 -15.7 74 74 WNW 8 13 30.56 1035 10 16.0934 0 0
6:35 am 06:35 Cloudy 10 -12 3 -15.9 73 73 W 9 15 30.57 1035 10 16.0934 0 0
6:55 am 06:55 Cloudy 10 -12.1 3 -15.9 74 74 W 9 15 30.58 1036 10 16.0934 0 0
7:15 am 07:15 Cloudy 10 -12.2 3 -16.1 73 73 W 6 9 30.59 1036 10 16.0934 0 0
7:35 am 07:35 Cloudy 10 -12.2 3 -16.2 72 72 W 7 11 30.59 1036 10 16.0934 0 0
7:55 am 07:55 Cloudy with Light Snow 10 -12.2 2 -16.4 71 71 WNW 7 11 30.6 1036 10 16.0934 0 0
8:15 am 08:15 Cloudy with Light Snow 10 -12.2 2 -16.4 71 71 WNW 9 15 30.61 1037 10 16.0934 0 0
8:35 am 08:35 Cloudy with Light Snow 11 -11.9 3 -16 72 72 WNW 9 15 30.62 1037 10 16.0934 0 0
8:55 am 08:55 Cloudy 11 -11.7 4 -15.8 72 72 W 8 13 30.63 1037 10 16.0934 0 0
9:15 am 09:15 Cloudy 11 -11.4 4 -15.6 71 71 WNW 7 11 30.63 1037 10 16.0934 0 0
9:35 am 09:35 Cloudy 12 -11.1 4 -15.6 70 70 NNW 10 17 30.64 1038 10 16.0934 0 0
9:55 am 09:55 Cloudy 12 -10.9 4 -15.5 69 69 WNW 7 11 30.64 1037 10 16.0934 0 0
10:15 am 10:15 Cloudy 13 -10.8 4 -15.5 69 69 NW 8 13 30.64 1037 10 16.0934 0 0
10:35 am 10:35 Partly Cloudy 15 -9.7 6 -14.5 68 68 NW 9 15 30.64 1038 10 16.0934 0 0
10:55 am 10:55 Sunny 15 -9.4 6 -14.2 68 68 NW 6 9 30.64 1038 10 16.0934 0 0
11:15 am 11:15 Sunny 16 -9 7 -14.1 67 67 WSW 8 13 30.64 1038 10 16.0934 0 0
11:35 am 11:35 Sunny 17 -8.5 7 -13.7 66 66 W 8 13 30.65 1038 10 16.0934 0 0
11:55 am 11:55 Partly Cloudy 17 -8.2 7 -13.7 65 65 SE 3 6 30.65 1038 10 16.0934 0 0
12:15 pm 12:15 Mostly Cloudy 18 -8 8 -13.4 65 65 N 7 11 30.65 1038 10 16.0934 0 0
12:35 pm 12:35 Partly Cloudy 18 -7.8 8 -13.6 63 63 W 3 6 30.65 1038 10 16.0934 0 0
12:55 pm 12:55 Mostly Cloudy 18 -8 8 -13.5 65 65 W 5 7 30.65 1038 10 16.0934 0 0
1:15 pm 13:15 Mostly Cloudy 20 -6.6 9 -12.6 63 63 W 5 7 30.63 1037 10 16.0934 0 0
1:35 pm 13:35 Cloudy 20 -6.9 9 -12.9 63 63 N 7 11 30.64 1037 10 16.0934 0 0
1:55 pm 13:55 Cloudy 19 -7.4 9 -12.7 66 66 N 7 11 30.63 1037 10 16.0934 0 0
2:15 pm 14:15 Cloudy 18 -7.6 8 -13.1 65 65 NW 5 7 30.62 1037 10 16.0934 0 0
2:35 pm 14:35 Cloudy 19 -7.2 9 -13 64 64 Calm 30.62 1037 10 16.0934 0 0
2:55 pm 14:55 Mostly Cloudy 19 -7 9 -12.9 63 63 Calm 30.62 1037 10 16.0934 0 0
3:15 pm 15:15 Cloudy 20 -6.8 9 -13 62 62 Calm 30.62 1037 10 16.0934 0 0
3:35 pm 15:35 Cloudy 20 -6.5 9 -13 60 60 Calm 30.61 1037 10 16.0934 0 0
3:55 pm 15:55 Cloudy 20 -6.4 9 -13 60 60 NNE 3 6 30.61 1037 10 16.0934 0 0
4:15 pm 16:15 Cloudy 20 -6.5 9 -13 60 60 Calm 30.61 1037 10 16.0934 0 0
4:35 pm 16:35 Cloudy 21 -6.3 9 -12.6 61 61 Calm 30.61 1037 10 16.0934 0 0
4:55 pm 16:55 Cloudy with Light Snow 20 -6.4 9 -12.6 62 62 Calm 30.62 1037 10 16.0934 0 0
5:15 pm 17:15 Cloudy 21 -6.3 10 -12.4 62 62 NNE 5 7 30.62 1037 10 16.0934 0 0
5:35 pm 17:35 Cloudy 20 -6.4 11 -11.7 66 66 NNE 6 9 30.62 1037 10 16.0934 0 0
5:55 pm 17:55 Cloudy 20 -6.5 11 -11.6 67 67 NNE 5 7 30.62 1037 10 16.0934 0 0
6:15 pm 18:15 Cloudy 20 -6.7 11 -11.4 70 70 NNE 5 7 30.62 1037 10 16.0934 0 0
6:35 pm 18:35 Cloudy 19 -7.1 11 -11.8 69 69 NNE 6 9 30.63 1037 10 16.0934 0 0
6:55 pm 18:55 Cloudy 18 -7.8 11 -11.9 73 73 N 5 7 30.63 1037 10 16.0934 0 0
7:15 pm 19:15 Cloudy 18 -7.8 11 -11.8 73 73 N 3 6 30.64 1038 10 16.0934 0 0
7:35 pm 19:35 Partly Cloudy 17 -8.2 11 -11.7 76 76 N 5 7 30.64 1038 10 16.0934 0 0
7:55 pm 19:55 Clear 17 -8.5 10 -12.1 76 76 NE 6 9 30.64 1038 10 16.0934 0 0
8:15 pm 20:15 Clear 16 -9 10 -12.1 78 78 NNE 3 6 30.63 1037 10 16.0934 0 0
8:35 pm 20:35 Clear 16 -8.9 11 -11.8 80 80 NNE 3 6 30.62 1037 10 16.0934 0 0
8:55 pm 20:55 Clear 15 -9.4 11 -11.5 85 85 N 5 7 30.62 1037 10 16.0934 0 0
9:15 pm 21:15 Clear 14 -10 11 -11.9 86 86 Calm 30.61 1037 10 16.0934 0 0
9:35 pm 21:35 Clear 13 -10.4 10 -12 88 88 N 3 6 30.62 1037 10 16.0934 0 0
9:55 pm 21:55 Clear 14 -10 11 -11.4 90 90 Calm 30.62 1037 10 16.0934 0 0
10:15 pm 22:15 Clear 14 -9.9 11 -11.5 88 88 Calm 30.62 1037 10 16.0934 0 0
10:35 pm 22:35 Clear 12 -10.9 10 -12.3 90 90 Calm 30.63 1037 10 16.0934 0 0
10:55 pm 22:55 Clear 13 -10.6 11 -11.8 91 91 Calm 30.63 1037 10 16.0934 0 0
11:15 pm 23:15 Clear 12 -11.1 10 -12.2 92 92 Calm 30.61 1036 10 16.0934 0 0
11:35 pm 23:35 Clear 11 -11.5 9 -12.6 92 92 Calm 30.61 1037 10 16.0934 0 0
11:55 pm 23:55 Clear 12 -11.3 10 -12.5 91 91 Calm 30.61 1037 10 16.0934 0 0

Powered by AerisWeather